[[{"header":{"parameterUnit":"m.s-1","parameterCategory":1,"la1":30.2992,"la2":30.254,"lo1":-89.0895,"lo2":-89.0443,"dy":0.0025,"dx":0.0025,"nx":19,"ny":19,"refTime":"2026-04-23T21:00:00:Z","depth":0,"parameterNumber":2,"parameterNumberName":"U-component_of_WINDS"},"data":[0,0,0,-2.2001,-2.2002,-2.2052,-2.2053,-2.2125,-2.2125,0,0,0,0,0,0,0,0,0,0,0,-2.1989,-2.199,-2.2001,-2.2003,-2.2052,-2.2053,-2.2124,-2.2125,0,0,0,0,0,0,0,0,0,0,0,-2.1989,-2.199,-2.199,-2.2003,-2.2052,-2.2053,-2.2124,-2.2084,0,0,0,0,0,0,0,0,0,0,-2.2035,-2.2026,-2.199,-2.199,-2.2003,-2.2052,-2.2053,-2.2082,-2.2087,-2.2105,0,-2.2119,0,-2.2123,-2.213,-2.2131,0,0,0,-2.2001,-2.2022,-2.2032,-2.199,-2.2003,-2.2052,-2.2029,-2.2085,-2.209,-2.2111,-2.212,-2.2123,-2.2125,-2.2131,-2.2131,-2.2235,-2.2236,0,0,-2.1998,-2.2,-2.2029,-2.2036,-2.2026,-2.2028,-2.2031,-2.2088,-2.2099,-2.2121,-2.2125,-2.2126,-2.2131,-2.2132,-2.2235,-2.2235,0,0,0,-2.1991,-2.1998,-2.2008,-2.2033,-2.2041,-2.2029,-2.2033,-2.2097,-2.2099,-2.2125,-2.2127,-2.2132,-2.2133,-2.2234,-2.2235,-2.2263,0,0,0,-2.199,-2.1994,-2.2006,-2.2008,-2.204,-2.2069,-2.2041,-2.2095,-2.2102,-2.2126,-2.2132,-2.2133,-2.2233,-2.2234,-2.2261,-2.2277,0,0,0,-2.1985,-2.1994,-2.2002,-2.2008,-2.2029,-2.2068,-2.2074,-2.2097,-2.2103,-2.2131,-2.2134,-2.2233,-2.2234,-2.2259,-2.2274,-2.2304,0,0,0,-2.1981,-2.2027,-2.2002,-2.2054,-2.2029,-2.2085,-2.2074,-2.2116,-2.2143,-2.2132,-2.2233,-2.2235,-2.2259,-2.2272,-2.2302,-2.2331,-2.2342,0,0,-2.204,-2.2034,-2.2065,-2.2044,-2.2104,-2.2077,-2.2143,-2.2167,-2.2169,-2.2214,-2.2216,-2.2262,-2.2273,-2.2304,-2.2408,-2.2417,0,0,0,-2.2084,-2.2106,-2.2121,-2.2146,-2.2165,-2.2183,-2.2196,-2.2206,-2.2243,-2.2191,-2.2281,-2.2288,-2.2306,-2.232,-2.2328,-2.2343,-2.2241,-2.2241,-2.2241,-2.217,-2.2169,-2.2219,-2.2224,-2.2249,-2.2262,-2.2283,-2.2298,-2.2291,-2.2312,-2.2325,-2.2388,-2.2404,-2.241,-2.2427,-2.234,-2.234,-2.2341,-2.2341,-2.2256,-2.2287,-2.2275,-2.232,-2.2319,-2.2357,-2.2373,-2.2366,-2.2403,-2.2378,-2.2394,-2.2367,-2.242,-2.2435,-2.2343,-2.2342,-2.2342,-2.2342,-2.2342,-2.2313,-2.2328,-2.2337,-2.2373,-2.2402,-2.2406,-2.2441,-2.244,-2.2439,-2.2455,-2.2469,-2.2469,-2.2468,-2.2462,-2.2462,-2.2462,-2.2462,-2.2462,-2.2462,-2.2368,-2.2377,-2.2406,-2.2429,-2.2445,-2.2467,-2.2481,-2.2498,-2.2517,-2.2513,-2.2513,-2.2504,-2.2425,-2.2406,-2.2466,-2.2465,-2.2465,-2.2464,-2.2464,-2.2457,-2.2436,-2.248,-2.2496,-2.2524,-2.2553,-2.255,-2.2585,-2.2598,-2.2616,-2.2604,-2.2546,-2.254,-2.2534,-2.2518,-2.2604,-2.2604,-2.2604,-2.2604,-2.2505,-2.2501,-2.2546,-2.2572,-2.2597,-2.2599,-2.2652,-2.2664,-2.2674,-2.2683,-2.2671,-2.2649,-2.2643,-2.2641,-2.2632,-2.2617,-2.2726,-2.2726,-2.2726,-2.2559,-2.2558,-2.2602,-2.2609,-2.263,-2.265,-2.2699,-2.2732,-2.2739,-2.2731,-2.269,-2.2685,-2.265,-2.2639,-2.263,-2.2617,-2.2589,0,0]},{"header":{"parameterUnit":"m.s-1","parameterCategory":1,"la1":30.2992,"la2":30.254,"lo1":-89.0895,"lo2":-89.0443,"dy":0.0025,"dx":0.0025,"nx":19,"ny":19,"refTime":"2026-04-23T21:00:00:Z","depth":0,"parameterNumber":3,"parameterNumberName":"V-component_of_WINDS"},"data":[0,0,0,3.722,3.722,3.7226,3.7227,3.7231,3.7231,0,0,0,0,0,0,0,0,0,0,0,3.7217,3.7217,3.722,3.722,3.7226,3.7227,3.7231,3.7231,0,0,0,0,0,0,0,0,0,0,0,3.7217,3.7217,3.7217,3.7221,3.7226,3.7227,3.7231,3.7228,0,0,0,0,0,0,0,0,0,0,3.7222,3.7218,3.7217,3.7217,3.7221,3.7226,3.7227,3.7228,3.7228,3.7228,0,3.7227,0,3.723,3.7232,3.7232,0,0,0,3.7221,3.7218,3.7221,3.7217,3.7221,3.7226,3.7224,3.7228,3.7228,3.7228,3.7228,3.7228,3.723,3.7232,3.7232,3.7229,3.7229,0,0,3.7221,3.7218,3.7221,3.7221,3.7221,3.7224,3.7224,3.7228,3.7227,3.7228,3.7228,3.723,3.7232,3.7232,3.7229,3.7229,0,0,0,3.7219,3.7217,3.722,3.7221,3.7222,3.7224,3.7224,3.7227,3.7228,3.7228,3.723,3.7232,3.7232,3.7229,3.7229,3.7223,0,0,0,3.7219,3.7216,3.722,3.7218,3.7222,3.7225,3.7223,3.7228,3.7228,3.723,3.7232,3.7232,3.7229,3.7229,3.7223,3.7221,0,0,0,3.7217,3.7216,3.7217,3.7218,3.722,3.7225,3.7226,3.7228,3.7229,3.7232,3.7232,3.7229,3.7229,3.7224,3.7221,3.7219,0,0,0,3.7214,3.7211,3.7217,3.7214,3.722,3.7221,3.7226,3.7227,3.7228,3.7232,3.7229,3.7229,3.7224,3.7222,3.722,3.7217,3.7216,0,0,3.7208,3.721,3.7209,3.7214,3.7214,3.7221,3.7219,3.7223,3.7226,3.7228,3.7228,3.7223,3.7221,3.7219,3.7209,3.7208,0,0,0,3.7206,3.7205,3.7206,3.7207,3.7211,3.7214,3.7218,3.722,3.7221,3.7227,3.7222,3.7221,3.722,3.7219,3.7218,3.7217,3.7228,3.7228,3.7228,3.7193,3.7198,3.7196,3.7202,3.7203,3.7208,3.721,3.7213,3.7216,3.7215,3.7216,3.7209,3.7208,3.7207,3.7206,3.7215,3.7215,3.7215,3.7215,3.7185,3.7185,3.7191,3.7191,3.7196,3.7197,3.7202,3.7205,3.7205,3.7209,3.7208,3.7212,3.7206,3.7205,3.7214,3.7214,3.7214,3.7215,3.7215,3.7177,3.7178,3.718,3.7183,3.7185,3.7191,3.7191,3.7196,3.72,3.7199,3.72,3.72,3.7201,3.7199,3.7199,3.7199,3.7199,3.7199,3.7199,3.7167,3.7171,3.7171,3.7175,3.7177,3.718,3.7186,3.7187,3.719,3.7193,3.7193,3.7197,3.7204,3.7206,3.7199,3.7199,3.7199,3.7199,3.7199,3.7158,3.7161,3.7162,3.7163,3.7169,3.717,3.7176,3.7179,3.7181,3.7182,3.7186,3.7191,3.7193,3.7193,3.7195,3.7185,3.7185,3.7185,3.7185,3.7151,3.7152,3.7155,3.7157,3.7161,3.7166,3.7167,3.7171,3.7176,3.7178,3.718,3.7182,3.7183,3.7184,3.7185,3.7187,3.7175,3.7175,3.7175,3.7145,3.7147,3.7147,3.7153,3.7158,3.7161,3.7162,3.7165,3.7171,3.7175,3.7179,3.7179,3.7183,3.7184,3.7188,3.7189,3.7192,0,0]}]]